Regional Weather Roundup
Issued by NWS

Home | Current Version | Previous Version | Text Only | Print | Product List | Glossary On
Versions: 1 2 3 4 5 6 7 8 9 10 11 12 13 14 15 16 17 18 19 20 21 22 23 24 25 26 27 28 29 30 31 32 33 34 35 36 37 38 39 40 41 42 43 44 45 46 47 48 49 50
000
ASUS42 KTBW 302217
RWRFL
FLORIDA REGIONAL WEATHER ROUNDUP
NATIONAL WEATHER SERVICE TAMPA BAY RUSKIN FL
600 PM EDT THU JUL 30 2015

NOTE: "FAIR" INDICATES FEW OR NO CLOUDS BELOW 12,000 FEET WITH NO
SIGNIFICANT WEATHER AND/OR OBSTRUCTIONS TO VISIBILITY.


FLZ001>010-012>015-112-114-115-302300-
PANHANDLE FLORIDA

CITY           SKY/WX    TMP DP  RH WIND       PRES   REMARKS
PENSACOLA      PTSUNNY   90  80  72 SW10      29.87S HX 107
PENSACOLA NAS  PTSUNNY   87  80  79 SW9       29.88R HX 103
MILTON NAS     PTSUNNY   92  77  61 NW8       29.87S HX 105
CRESTVIEW      PTSUNNY   97  76  50 VRB6      29.87F HX 110
DUKE FIELD     PTSUNNY   92  78  62 S10       29.86F HX 106
MARY ESTHER    MOSUNNY   89  78  70 S8        29.86F HX 103
TRI COUNTY     MOCLDY    84  75  74 SE17G29   29.90R THUNDER
PANAMA CITY    MOCLDY    78  76  93 S10       29.91F
TYNDALL AFB    CLOUDY    80  77  91 SW9       29.91F
APALACHICOLA   CLOUDY    81  77  88 W12       29.91F

STATION/POSITION SKY/WX   TEMP    WIND        PRES    WAVE   SWELL
                          AIR SEA DIR/SP/G            HT/PER HT/PER
                          (F)     (DEG/KT/KT) (MB)    (FT/S) (FT/S)
30.1N   87.6W              87 86  220/ 10/ 12 1011.1F   1/ 5
29.2N   88.2W              87 93  260/  2/  4 1012.8F   1/ 6
28.8N   86.0W              83 86  230/  6/  8 1013.8F   2/ 4   2/ 4
PANAMA CITY BEAC           79 86  160/ 14/ 24 1013.5R
CAPE SAN BLAS    NOT AVBL
TOWER C                    81     240/ 14/ 15 1012.6F
28.5N   84.5W              83 85  260/ 14/ 17 1013.1F   2/ 4

$$
FLZ011-016>038-118-127-128-134-139-239-302300-
NORTH FLORIDA

CITY           SKY/WX    TMP DP  RH WIND       PRES   REMARKS
MARIANNA       MOSUNNY   83  74  74 S20G30    29.90R
TALLAHASSEE    LGT RAIN  82  77  84 SW9       29.92F
PERRY          CLOUDY    83  83 100 SW9       29.92F HX 101
CROSS CITY       N/A     82  78  88 W7        29.92F
LAKE CITY      FAIR      81  77  89 SW7       29.92F
GAINESVILLE    LGT RAIN  85  76  74 SW10      29.92S
MAYPORT NAS    MOSUNNY   87  72  60 SE10      29.89S
JACKSONVILLE   MOSUNNY   93  69  45 SW5       29.88S HX  98
JAX NAS        MOSUNNY   96  66  37 E8        29.89F HX  99
JAX CRAIG      SUNNY     89  72  56 E9        29.89S HX  96
JAX CECIL      PTSUNNY   93  73  52 VRB5      29.89S HX 102
FERNANDINA BEA FAIR      90  72  55 E6        29.88S HX  96
ST AUGUSTINE   SUNNY     87  77  72 E8        29.91R HX  99

STATION/POSITION SKY/WX   TEMP    WIND        PRES    WAVE   SWELL
                          AIR SEA DIR/SP/G            HT/PER HT/PER
                          (F)     (DEG/KT/KT) (MB)    (FT/S) (FT/S)
SHELL POINT                83     250/ 14/ 17   N/A
KEATON BEACH               83     250/ 16/ 19 1013.1F
CEDAR KEY                  84     280/  8/ 11 1013.7F
FERNANDINA                 88 86   90/  5/  9 1011.7F
30.7N   81.3W                 85                N/A     2/ 5
MAYPORT                    86 85   80/  8/ 11 1012.6F
31.4N   80.9W              83 85  190/  8/ 10 1012.1F   2/ 7   2/ 7
ST AUGUSTINE               83 85  130/ 10/ 11 1013.3R

$$
FLZ040-043>046-052-053-057-058-063-144-302300-
INTERIOR CENTRAL FLORIDA

CITY           SKY/WX    TMP DP  RH WIND       PRES   REMARKS
OCALA          MOSUNNY   90  72  55 W8        29.93S HX  96
THE VILLAGES     N/A     81  81 100 S9        29.85S
LEESBURG       CLOUDY    79  73  82 SW16G22   29.96R
SANFORD        CLOUDY    77  73  87 SE3       29.94S
ORLANDO EXEC   LGT RAIN  78  76  93 NW3       29.95F FOG
ORLANDO INTL   TSTM      80  76  87 E7        29.96R
KISSIMMEE      LGT RAIN  84  75  74 SW12G20   29.95R
WINTER HAVEN   PTSUNNY   84  73  69 W8        29.97R
LAKELAND       MOSUNNY   81  73  78 CALM      29.96R
BARTOW         FAIR      84  73  70 CALM      29.97S
OKEECHOBEE     RAIN      72  63  73 W20G32    29.98F

$$
FLZ041-047-054-059-064-141-147-302300-
EAST CENTRAL FLORIDA

CITY           SKY/WX    TMP DP  RH WIND       PRES   REMARKS
ORMOND BEACH   RAIN      81  77  89 SW16      29.93R
DAYTONA BEACH  TSTM      82  75  79 S10       29.93R
DELAND           N/A     84  72  65 S6        29.94F
NEW SMYRNA BEA LGT RAIN  79  73  83 SW14G25   29.93R
JFK SPACE CTR  TSTM      80  74  82 SW17G25   29.98R VSB 1/2
TITUSVILLE     RAIN      73  72  94 SW25      29.96R
CAPE CANAVERAL PTSUNNY   80  73  77 W20G25    29.95R THUNDER
PATRICK AFB    TSTM      78  74  88 SW12      29.97R FOG
MELBOURNE      CLOUDY    76  74  93 S6        29.97R
VERO BEACH     LGT RAIN  77  73  87 SW7       29.98F
FT PIERCE      HVY RAIN  76  73  91 W9        29.99R VSB 3/4
STUART         CLOUDY    79  73  83 N13G21    29.98R THUNDER

STATION/POSITION SKY/WX   TEMP    WIND        PRES    WAVE   SWELL
                          AIR SEA DIR/SP/G            HT/PER HT/PER
                          (F)     (DEG/KT/KT) (MB)    (FT/S) (FT/S)
28.5N   80.2W              82 82  160/ 14/ 16 1013.7R
28.9N   78.5W              83 84  220/ 14/ 16 1014.0F
TRIDENT PIER               82 80  170/ 11/ 15 1014.2R
28.4N   80.5W                 81                N/A     1/10
27.5N   80.2W                 78                N/A     2/ 3

$$
FLZ050-056-061-142-242-148-248-149-249-151-251-155-255-
160-260-302300-
WEST CENTRAL FLORIDA

CITY           SKY/WX    TMP DP  RH WIND       PRES   REMARKS
CRYSTAL RIVER  MOCLDY    88  77  70 W8        29.93F HX 100
INVERNESS      MOCLDY    88  77  70 SW7       29.93F HX 100
BROOKSVILLE    PTSUNNY   87  76  69 SW10      29.95S HX  97
ZEPHYRHILLS    FAIR      77  77 100 CALM      29.96S
CLEARWATER     CLOUDY    82  72  71 SW20G26   29.96R
TAMPA INTL     CLOUDY    84  76  76 W3        29.95S
TAMPA EXEC     RAIN      81  77  89 CALM      29.96R
PLANT CITY     CLOUDY    82  79  89 CALM      29.98R
MACDILL AFB    CLOUDY    85  79  83 SW12      29.95S HX  98
PETER O KNIGHT DRIZZLE   82  81  94 CALM      29.95S HX  95
ST PETERSBURG  CLOUDY    85  75  72 W14       29.93S
SARASOTA       CLOUDY    87  76  69 SW15      29.94F HX  97
VENICE         FAIR      86  77  74 W13       29.96F HX  97

STATION/POSITION SKY/WX   TEMP    WIND        PRES    WAVE   SWELL
                          AIR SEA DIR/SP/G            HT/PER HT/PER
                          (F)     (DEG/KT/KT) (MB)    (FT/S) (FT/S)
CEDAR KEY                  84     280/  8/ 11 1013.7F
28.5N   84.5W              83 85  260/ 14/ 17 1013.1F   2/ 4
27.3N   84.2W                 85                N/A     2/ 4
CLEARWATER BEACH           84 84  210/ 10/ 13 1014.3F
MIDDLE TAMPA BAY           84     250/ 12/ 13 1014.4F
VENICE                     85 86  240/ 14/ 15 1013.8F

$$
FLZ066-069-070-075>078-162-262-165-265-302300-
SOUTHWEST FLORIDA AND KEYS

CITY           SKY/WX    TMP DP  RH WIND       PRES   REMARKS
PUNTA GORDA    CLOUDY    85  77  77 W10       29.98S HX  95
FT MYERS       CLOUDY    86  76  71 W12       29.96F HX  96
SOUTHWEST INTL PTSUNNY   86  75  69 W14       29.97F HX  95
NAPLES         PTSUNNY   88  77  69 SW13      29.97F HX 100
MARCO ISLAND   CLEAR     88  73  62 SW7       29.98F HX  96
MARATHON       PTSUNNY   89  77  67 SW6       29.99F HX 101
KEY WEST NAS   CLOUDY    87  75  67 SW7       29.99F HX  96
KEY WEST INTL  CLOUDY    87  76  69 SW7       30.00S HX  97

STATION/POSITION SKY/WX   TEMP    WIND        PRES    WAVE   SWELL
                          AIR SEA DIR/SP/G            HT/PER HT/PER
                          (F)     (DEG/KT/KT) (MB)    (FT/S) (FT/S)
VENICE                     85 86  240/ 14/ 15 1013.8F
NAPLES                        86              1016.4F
26.0N   85.6W              83 84  250/ 14/ 16 1014.7F   2/ 3   2/10
DRY TORTUGAS               86     200/  3/  4 1015.8F
NW FL BAY                  87     280/  5/  7 1015.7
SAND KEY                   85     250/  4/  5 1015.7F
SOMBRERO KEY               86     320/  2/  5 1016.3F
LONG KEY                   88 90  230/  5/  5 1016.3F
MOLASSES REEF              86 88  240/  8/  9 1015.5F

$$
FLZ067-068-071>074-168-172>174-302300-
SOUTHEAST FLORIDA

CITY           SKY/WX    TMP DP  RH WIND       PRES   REMARKS
W PALM BEACH   PTSUNNY   89  69  51 SW9       29.98R
FT LAUDER-EXEC MOSUNNY   93  68  43 SW12      29.97R HX  97
FT LAUDERDALE  PTSUNNY   90  71  53 W7        29.97R HX  96
POMPANO BEACH  MOSUNNY   92  70  48 W14       29.97R HX  97
PEMBROKE PINES PTSUNNY   91  68  46 W12       29.98S HX  95
OPA LOCKA      PTSUNNY   90  69  50 W14       29.98R
MIAMI          CLOUDY    91  67  44 W7        29.98R
WEST KENDALL   CLOUDY    90  71  53 W9        29.98S HX  96
HOMESTEAD      PTSUNNY   89  74  62 SW9       29.98R HX  97

STATION/POSITION SKY/WX   TEMP    WIND        PRES    WAVE   SWELL
                          AIR SEA DIR/SP/G            HT/PER HT/PER
                          (F)     (DEG/KT/KT) (MB)    (FT/S) (FT/S)
PORT EVERGLADES            86     200/  4/ 12 1015.0R
VIRGINIA KEY               87 88  180/ 11/ 15 1014.7F
LAKE WORTH                 84 84  180/ 10/ 13 1014.4F
SETTLEMENT POINT           85     190/ 13/ 14 1016.1R

$$




USA.gov is the U.S. government's official web portal to all federal, state and local government web resources and services.